Zurück zum Katalog

COSMOS 1922

AktivMilitärHEO
NORAD 18881·PAYLOAD·🇷🇺 Russia

Gestartet Feb 26, 1988 von Plesetsk Cosmodrome

Loading…

Nächste Überflüge (nächste 24 Stunden)

TLE

AktuellSource: Space-Track

Epoche: Sep 13, 2026, 12:49 UTC

1 18881U 88013A   26256.53437150  .00000433  00000-0  00000-0 0  9995
2 18881  68.7817  67.1226 5926780  41.8484 350.7823  2.00834716282309

Verfolge COSMOS 1922 in Echtzeit mit AllMySat

Download on the App Store